AirNav   Everest Fuels
 
 1342 users online  

KNKX Miramar MCAS (Joe Foss Field) Airport
San Diego, California, USA

GOING TO SAN DIEGO?


FAA INFORMATION EFFECTIVE 05 NOVEMBER 2020

Location

FAA Identifier: NKX
Lat/Long: 32-52-06.7043N 117-08-35.4782W
32-52.111738N 117-08.591303W
32.8685290,-117.1431884
(estimated)
Elevation: 477.1 ft. / 145.4 m (surveyed)
Variation: 12E (2015)
From city: 3 miles N of SAN DIEGO, CA
Time zone: UTC -8 (UTC -7 during Daylight Saving Time)
Zip code: 92126

Airport Operations

Airport use: Private use. Permission required prior to landing
Activation date: 02/1944
Control tower: yes
ARTCC: LOS ANGELES CENTER
FSS: SAN DIEGO FLIGHT SERVICE STATION
NOTAMs facility: NKX (NOTAM-D service available)
Attendance: FRI 1630-0200Z++, ALL SAT CLSD, ALL SUN 2200-0200Z++, ALL HOL CLSD, ALL MON-THU 1530-0800Z
Segmented circle: no
Lights: ACTIVATE-ALSF-1, HIRL, CL AND PAPI RWY 06L-24R-298.925 OR 135.2
Beacon: white-white-green (lighted military airport)
Operates sunset to sunrise.

Airport Communications

ATIS: 133.475 352.0
MIRAMAR GROUND: 128.625 307.325 [1530-0800Z MON-THU; 1630-0200Z++ FRI; CLSD SAT; 2200-0200Z++SUN. FLD CLSD NATL HOLS.]
MIRAMAR TOWER: 135.2 298.925 340.2 [1530-0800Z MON-THU; 1630-0200Z++ FRI; CLSD SAT; 2200-0200Z++SUN. FLD CLSD NATL HOLS.]
SOCAL APPROACH: 132.2
SOCAL DEPARTURE: 119.6 ;WEST 132.2 ;EAST
CLEARANCE DELIVERY: 125.975 254.325
PMSV METRO: 342.4
PTD: 335.625
RADAR: 133.625 266.8X 270.35 307.9X 328.4X 348.75 350.275 373.575 379.125 380.3X
WX ASOS at MYF (3 nm S): 126.9 (858-576-4337)
WX ASOS at SAN (8 nm S): PHONE 619-296-8934
WX AWOS-3P at SEE (9 nm E): 125.45 (619-449-1228)
WX ASOS at RNM (15 nm NE): PHONE 760-789-7699
WX ASOS at CRQ (17 nm NW): PHONE 760-930-0864
WX ASOS at NRS (18 nm S): PHONE 619-437-9890
WX ASOS at SDM (20 nm SE): 132.35 (619-661-8297)

Nearby radio navigation aids

VOR radial/distance  VOR name  Freq  Var
MZBr024/6.6MISSION BAY VORTAC117.8015E
PGYr318/17.6POGGI VORTAC116.4514E
TIJr320/21.9TIJUANA VOR/DME116.5014E
OCNr133/26.3OCEANSIDE VORTAC115.3015E
JLIr225/32.4JULIAN VORTAC114.0015E

Airport Services

Airframe service: NONE
Powerplant service: NONE
Bottled oxygen: NONE
Bulk oxygen: NONE

Runway Information

Runway 6L/24R

Dimensions: 12000 x 200 ft. / 3658 x 61 m
Surface: concrete
Weight bearing capacity: 
PCN 72 /R/B/W/T
Runway edge lights: high intensity
RUNWAY 6L  RUNWAY 24R
Latitude: 32-51.873985N32-52.372448N
Longitude: 117-09.890945W117-07.621707W
Elevation: 425.7 ft.474.9 ft.
Traffic pattern: leftleft
Runway heading: 063 magnetic, 075 true243 magnetic, 255 true
Visual slope indicator: 4-light PAPI on left (3.00 degrees glide path)4-light PAPI on left (3.00 degrees glide path)
Approach lights: OLSALSF1: standard 2,400 foot high intensity approach lighting system with centerline sequenced flashers (category I)
SF, OLS
Centerline lights: yesyes
Touchdown point: yes, no lightsyes, no lights
Instrument approach: LOC/GS

Runway 6R/24L

Dimensions: 8001 x 200 ft. / 2439 x 61 m
Surface: PEM
Weight bearing capacity: 
PCN 65 /R/B/W/T
Runway edge lights: high intensity
RUNWAY 6R  RUNWAY 24L
Latitude: 32-51.928375N32-52.260677N
Longitude: 117-09.100330W117-07.587280W
Elevation: 430.2 ft.477.1 ft.
Traffic pattern: leftleft
Runway heading: 063 magnetic, 075 true243 magnetic, 255 true
Visual slope indicator: 4-light PAPI on left (3.00 degrees glide path)4-light PAPI on left (3.00 degrees glide path)
Approach lights: OLSOLS
Touchdown point: yes, no lightsyes, no lights

Airport Ownership and Management from official FAA records

Ownership: U.S. Navy
Owner: US NAVY
OCEANOGRAPHIC OFC - CODE 3142
WASHINGTON, DC 20373
Manager: COMMANDING OFFICER
MARINE CORPS AIR STATION MIRAMAR
SAN DIEGO, CA 92145

Additional Remarks

E60-24R HOOK E28(B) (2300')
E60-06R HOOK E28(B) (1052')
E60-06L HOOK E28(B) (2490')
E60-24L HOOK E28(B) (2301')
CAUTION: WATER ON THE RUBBER BUILD-UP AREAS OF THE RWY MAY PRODUCE POOR TRACTION AND/OR BA AND STANDING WATER ON RWY MAY PRODUCE HYDROPLANING COND.
NS ABTMT: STRICTLY ENFORCED, MANDATORY PRO AND CRS RULES. ALL TRAN ACFT MUST REVIEW AND SIGN NOISE ABATEMENT FORM WITH FLT PLANNING.
CAUTION: HIGH MID-AIR POTENTIAL, EXER EXTREME VIGILANCE.
CAUTION: ALL ACFT ARR/DEP VFR VIA CORRIDOR RULES TO/FR COASTLINE ARE ADZD TO EXER EXTREME CTN TO AVOID HANG GLDR ACT NEAR TORRY PINES GOLF CRS, NKX R-283/5 DME.
CAUTION: EXTSV GEN AVIATION TFC ALL ALTS, ALL DRCT NEAR AFLD. HIGH VOLUME OF CIV VFR TFC ALONG THE COAST W OF AFLD.
MISC: ORDNANCE, LIVE OR INERT, NOT PMTD TO RMN ON RON TSNT ACFT.
SERVICE-LGT: PAPI RRP NOT COINCIDENTAL WITH PAR RY 24L & RY 24R. PAPI UNITS FOR RY 06R/L ARE OPTIMIZED FOR HGT GROUP 2 TYPE ACFT.
A-GEAR: SHORT FLD A-GEAR RWY 24R NML DE-RIGGED.
FUEL: J5
FLUID: SP LHOX LOX.
OIL: O-148-156.
TRAN ALERT: NO AMC FLEET SVC AVBL. ALCE TEAM RQR FOR ALL AMC FLT. LTD TRAN SVC, NO TIE-DOWN, OIL/LABORATORY ANALYSIS OR TRAN MAINT SVC AVBL.
JASU: (A/M47A-4) (NC-10A1) (NC-10C)
TRAN ALERT: NO SHUTTLE SVC AVBL. ALL VIP ACFT CTC AIRFIELD OPS ON PTD 15 MIN PRIOR TO ARR.
RSTD (1 OF 3): PPR FOR ALL TSNT ACFT AND TRANSCOM/JOSAC/NALO ARE RQRD TO CTC VISITING ACFT LINE DSN 307-4284, C858-307-4284 (PPR RSTRD TO 30 MIN BFR/AFT APVD TIME; PPR NOT VALID OUTSIDE OF THIS WINDOW AND MUST BE RE-COORDD TO ARR).
RSTD (2 OF 3): FOR STAGING (LCL TRNG FLT) OR HIGH VISIBILITY EVENTS (VIP M7 AND ABOVE, MEDEVAC W/BATTLE PATIENTS, OIF/OEF HOMECOMING, HR/ANGEL FLIGHTS ETC.) ARE REQUIRED TO NOTIFY AIROPS 1HR PRIOR TO ARRIVAL DUE TO 3DMAW CG AND STATION CO COORDINATION.
RSTD (3 OF 3): PLEASE CTC THE OPS DUTY OFFICER AT DSN 307-4277/4284, C858-307-4277/4284.
TFC PAT: REDUCED RWY SEPARATION STD IN EFF USN/USMC ACFT. OPR ON PARL RWY 700' APART. MULTI PRACTICE APCH RY 06L/R NOT AUTH. RADAR VECTORS TO FINAL APCH EXP STEEP DESCENT.
AIRFIELD OPRG HRS ARE SUBJECT TO CHANGE; CHECK NOTAMS OR CTC AIRFIELD OPERATIONS TO VERIFY HRS. PILOTS FILING MCAS MIRAMAR AS AN ALTN OR EMERG DIVERT ARE ADVISED TO CALL AIRFIELD OPERATIONS TO VERIFY OPRG HRS.
CLOSED FIELD OPNS (CFO) ARE RSTRD AND RQR PPR.
FOR CD WHEN ATCT CLSD CTC SOCAL APCH AT 800-448-3724.

Instrument Procedures

NOTE: All procedures below are presented as PDF files. If you need a reader for these files, you should download the free Adobe Reader.

NOT FOR NAVIGATION. Please procure official charts for flight.
FAA instrument procedures published for use from 05 November 2020 at 0901Z to 03 December 2020 at 0900z.

 
IAPs - Instrument Approach Procedures
ILS OR LOC/DME RWY 24R **CHANGED**   download (165KB)
RNAV (GPS) RWY 24L **CHANGED**   download (175KB)
RNAV (GPS) RWY 24R **CHANGED**   download (170KB)
HI-TACAN RWY 24R **CHANGED**   download (174KB)
TACAN RWY 24R **CHANGED**   download (183KB)
Radar Approach Procedures available **CHANGED**   download (173KB)
 
Departure Procedures
LAKEE THREE **CHANGED**   2 pages: [1] [2] (204KB)
REDIN FOUR **CHANGED**   download (91KB)
SWOLF NINE **CHANGED**   2 pages: [1] [2] (166KB)
TINNY FOUR **CHANGED**   2 pages: [1] [2] (152KB)
VITKO THREE **CHANGED**   2 pages: [1] [2] (234KB)
NOTE: Special Take-Off Minimums/Departure Procedures apply   download (236KB)

Other nearby airports with instrument procedures:

KMYF - Montgomery-Gibbs Executive Airport (3 nm S)
KSAN - San Diego International Airport (8 nm S)
KSEE - Gillespie Field Airport (9 nm E)
KNZY - North Island Naval Air Station (Halsey Field) (11 nm S)
KRNM - Ramona Airport (15 nm NE)
KCRQ - Mc Clellan-Palomar Airport (17 nm NW)
KNRS - Imperial Beach Naval Outlying Field (Ream Field) (18 nm S)
KSDM - Brown Field Municipal Airport (20 nm SE)
 
Loc | Ops | Rwys | IFR | FBO | Links
Com | Nav | Svcs | Stats | Notes
Area around KNKX (Miramar MCAS (Joe Foss Field) Airport)
 
Road maps at: MapQuest Bing Google
 
Aerial photo
WARNING: Photo may not be current or correct
Aerial photo of KNKX (Miramar MCAS (Joe Foss Field) Airport)
Photo courtesy of AirNav, LLC
Photo taken 11-May-2013
looking northeast from 7,000 ft.

Do you have a better or more recent aerial photo of Miramar MCAS (Joe Foss Field) Airport that you would like to share? If so, please send us your photo.

 
Sectional chart

 
Airport diagram
Diagram of KNKX (Miramar MCAS (Joe Foss Field) Airport)
Download PDF
of official airport diagram from the FAA

 
Airport distance calculator
Flying to Miramar MCAS (Joe Foss Field) Airport? Find the distance to fly.

From to KNKX

Sunrise and sunset
Times for 01-Dec-2020
 Local
(UTC-8)
 Zulu
(UTC)
Morning civil twilight06:0814:08
Sunrise06:3514:35
Sunset16:4100:41
Evening civil twilight17:0801:08

Current date and time
Zulu (UTC)  01-Dec-2020 21:59:30
Local (UTC-8)  01-Dec-2020 13:59:30
 
METAR
KNKX 012055Z 30007KT 10SM CLR 24/M03 A3002 RMK AO2 SLP160 T02441033 58019 $
KMYF 
3nm S 
012153Z 29007KT 10SM CLR 24/M04 A3001 RMK AO2 SLP158 T02391044
KSAN 
8nm S 
012151Z 32006KT 10SM CLR 21/02 A3002 RMK AO2 SLP164 T02110017
KSEE 
9nm E 
012153Z 28006KT 10SM SKC 26/M05 A3000
KNZY 
11nm S 
012152Z 33010KT 10SM CLR 22/05 A3000 RMK AO2 SLP157 T02170050
KRNM 
15nm NE 
012153Z 27009KT 10SM CLR 24/M03 A3002 RMK AO2 SLP160 T02441033
KCRQ 
17nm NW 
012153Z 27005KT 10SM CLR 19/06 A3001 RMK AO2 SLP159 T01890056
KNRS 
18nm S 
012056Z 28009KT 10SM CLR 22/02 A3003 RMK AO2 SLP167 T02170022 58019 $
KSDM 
19nm SE 
012153Z VRB05KT 10SM CLR 23/00 A3000 RMK AO2 SLP156 T02330000
TAF
KNKX 0115/0215 07006KT 9999 SKC QNH3004INS BECMG 0117/0119 32007KT 9999 SKC QNH2996INS BECMG 0202/0204 08007KT 9999 SKC QNH2998INS T26/0121Z T08/0214Z
KSAN 
8nm S 
011720Z 0118/0224 27004KT P6SM SKC FM012000 29009KT P6SM SKC FM020200 VRB03KT P6SM SKC FM022000 27007KT P6SM FEW250
KNZY 
11nm S 
0115/0215 VRB06KT 9999 SKC QNH3002INS FM012000 30010KT 9999 SKC QNH2996INS FM020200 VRB06KT 9999 FEW250 QNH2998INS T22/0121Z T09/0214Z FS30139
KCRQ 
17nm NW 
011720Z 0118/0218 28004KT P6SM SKC FM012000 26007KT P6SM SKC FM020100 VRB03KT P6SM SKC
NOTAMs
Click for the latest NOTAMs
NOTAMs are issued by the DoD/FAA and will open in a separate window not controlled by AirNav.

 

 
 

Would you like to see your business listed on this page?

 If your business provides an interesting product or service to pilots, flight crews, aircraft, or users of the Miramar MCAS (Joe Foss Field) Airport, you should consider listing it here.  To start the listing process, click on the button below
 
Add a business
 

Other Pages about Miramar MCAS (Joe Foss Field) Airport

www.miramar.usmc.mil
 
Update a link
 
Copyright © AirNav, LLC. All rights reserved. Privacy Policy  Contact